Wind_Speed
11 11 12 12 13 14 15 15 16 16 16 17 17 16 15 14 13 15 17 19 20 21 22 23 23 23 22 22 22 20 20 19 19 18 14 10 5 7 8 13 15 15 15 13 13 11 8 5 3 4 6 8 8 6 5 6 5 6 4 3 6 5 2 4 3 4 4 7 8 3 3 3 2 4 5 4 5 7 7 4 3 2 1 2 5 7 8 8
11 11 11 11 12 13 14 14 15 15 16 16 16 16 14 14 16 18 20 22 23 23 23 23 23 23 22 21 20 20 21 20 19 15 10 8 8 10 10 12 12 13 10 9 10 7 5 5 6 6 10 12 9 6 4 7 5 4 2 2 8 8 5 5 5 5 3 6 9 2 2 4 2 4 5 4 5 8 7 4 2 1 2 3 6 9 9 9
11 11 11 11 11 12 13 13 14 15 15 15 15 14 13 15 17 19 21 22 23 23 23 23 22 22 20 20 19 20 20 19 17 10 6 6 7 7 8 9 9 11 5 4 8 5 6 5 6 9 13 11 11 11 5 7 4 6 1 5 8 10 8 6 7 8 6 8 9 3 5 6 4 4 2 2 3 3 4 5 3 1 2 3 6 9 10 11
11 11 10 10 10 11 11 12 14 15 15 14 13 13 13 14 17 20 22 22 22 22 21 21 21 21 20 20 20 20 20 19 15 6 2 5 5 5 5 7 7 7 3 3 7 7 6 7 7 10 10 4 9 10 1 3 4 4 4 11 10 9 9 8 8 9 9 8 9 8 7 6 7 6 4 2 3 3 3 4 4 1 3 3 6 8 9 11
11 11 10 9 9 9 10 11 13 14 14 12 11 11 12 14 18 21 21 21 20 20 20 20 21 20 19 19 16 16 16 17 18 11 3 8 8 4 3 4 6 4 3 4 4 6 8 13 14 13 8 2 6 5 4 1 3 3 9 13 9 6 6 7 8 9 10 8 10 11 8 7 9 8 8 5 5 5 2 3 4 3 3 5 8 8 8 9
12 11 9 8 8 8 8 10 12 13 12 10 10 12 12 15 18 21 20 19 20 21 22 21 22 21 20 19 16 15 15 15 19 18 14 14 12 11 9 8 4 5 2 2 3 7 11 7 13 16 11 5 5 2 4 4 6 6 10 12 8 8 8 8 9 11 11 10 11 10 8 10 11 11 11 9 8 6 4 4 4 3 5 6 7 8 9 10
12 10 9 8 7 7 7 9 11 12 11 9 11 13 13 16 19 19 19 19 21 22 22 21 20 20 18 16 14 15 13 11 10 14 19 15 13 15 17 21 15 8 7 3 5 1 1 8 5 6 10 9 6 6 8 12 13 11 12 11 9 10 10 10 11 12 12 13 12 9 10 12 12 14 12 10 11 8 6 6 5 6 6 6 7 7 9 11
12 10 8 7 6 6 7 8 10 10 9 7 12 14 14 17 18 18 18 20 20 20 19 18 16 16 15 12 10 11 9 6 2 3 10 9 10 12 12 19 19 15 13 9 16 17 14 17 18 14 18 15 11 10 14 16 16 16 16 11 10 11 11 11 12 12 12 12 12 11 12 14 14 15 13 10 10 8 7 7 6 5 5 6 8 9 11 12
11 10 8 6 6 5 6 8 8 8 8 7 14 15 15 17 18 18 18 19 18 17 15 14 14 14 13 11 10 10 7 5 2 4 9 11 10 9 9 11 11 11 12 8 20 22 18 17 22 23 21 17 14 12 15 16 15 16 15 12 12 12 10 11 11 9 10 13 12 12 14 14 12 12 13 11 9 8 7 7 6 6 7 6 6 8 11 12
10 9 8 6 5 6 7 7 7 7 7 8 15 16 15 17 17 18 18 17 16 15 15 13 14 13 9 8 8 8 9 9 8 9 11 13 12 11 10 8 10 12 9 4 13 16 16 14 15 21 21 19 16 14 16 17 15 15 13 13 12 11 10 9 10 8 11 14 12 12 12 12 11 9 11 9 8 8 6 7 6 8 11 7 6 7 9 9
10 9 7 6 5 6 7 6 7 7 6 10 16 16 15 17 17 17 16 16 16 16 16 15 15 14 11 12 9 7 11 12 13 13 12 13 14 13 11 10 13 13 8 3 5 11 18 16 11 13 16 18 16 13 13 13 14 12 11 12 10 10 11 9 9 9 11 12 10 12 13 12 12 11 10 8 7 8 6 6 6 3 7 8 8 7 5 5
9 8 7 6 6 6 6 7 7 7 6 12 17 16 14 16 17 15 15 15 16 15 15 15 13 12 12 14 10 9 10 8 13 16 14 12 13 14 15 14 11 7 3 1 5 9 14 14 11 11 11 13 13 12 10 10 11 10 9 10 9 10 11 10 10 11 10 9 9 13 15 13 12 9 9 9 9 9 6 5 7 5 5 6 6 4 2 2
9 8 7 6 6 6 6 7 7 7 6 12 18 16 14 15 16 14 14 15 14 14 13 13 11 11 13 12 8 9 8 3 9 15 15 14 14 15 16 13 7 6 7 2 7 6 8 9 9 11 11 9 10 13 12 8 9 10 9 8 7 9 10 10 9 10 10 9 8 11 13 12 11 8 7 9 9 8 6 7 9 6 6 4 3 4 4 6
8 8 7 6 6 6 6 7 6 6 5 12 18 16 14 14 14 13 12 13 13 12 10 9 9 10 11 9 7 9 10 8 8 14 16 18 16 11 11 11 9 10 10 6 4 4 5 8 5 6 11 10 5 8 8 6 9 11 8 6 6 7 9 8 8 8 10 11 8 10 11 10 8 6 6 7 6 3 6 8 5 3 3 1 4 5 6 7
8 8 7 6 6 6 6 6 6 6 5 12 18 16 15 14 13 12 10 10 10 9 8 8 8 7 7 6 6 10 14 12 8 9 11 14 14 5 4 11 9 8 6 4 3 2 2 6 5 5 10 11 3 2 5 2 6 9 7 6 5 6 9 7 9 8 8 9 6 9 11 10 8 6 6 6 6 4 5 7 4 4 4 2 5 6 7 7
9 8 6 7 6 5 6 6 6 7 6 10 17 16 14 14 13 11 9 8 7 6 6 6 7 8 7 6 7 11 14 10 6 6 8 8 8 3 3 9 8 5 4 3 2 2 3 4 6 2 2 11 6 4 7 5 1 3 5 7 5 5 8 7 8 7 8 7 4 8 11 9 8 6 5 5 6 6 2 5 5 6 7 4 4 6 8 9
8 8 7 7 6 5 5 6 6 7 7 7 15 17 14 14 12 10 9 6 4 3 2 3 9 11 8 5 6 7 8 6 5 5 6 7 4 3 5 6 5 3 2 3 2 3 3 2 4 2 5 7 5 3 4 9 6 2 4 7 8 7 6 7 8 3 8 8 5 7 11 9 8 6 6 5 5 5 4 6 4 3 5 4 4 5 7 9
8 7 6 6 5 5 5 5 7 8 8 7 9 15 15 14 11 10 8 5 4 1 6 6 8 8 4 6 5 3 4 5 5 3 4 7 5 4 5 4 3 2 1 2 4 1 2 3 4 4 3 1 5 4 1 6 6 5 8 9 10 9 7 7 7 2 5 8 8 7 10 9 7 6 6 6 5 4 4 6 6 6 5 5 7 6 6 8
7 7 6 6 6 6 5 5 7 8 9 10 7 10 15 14 11 9 6 4 5 4 7 6 6 6 5 6 3 2 5 6 5 3 4 6 5 3 3 4 3 4 2 2 6 2 1 4 4 5 1 2 2 1 5 6 5 6 7 6 8 10 10 9 8 4 2 5 7 7 9 10 8 7 6 5 4 4 3 5 10 12 10 8 9 8 6 6
7 6 6 7 7 6 5 5 6 7 9 9 7 4 5 8 10 7 4 5 6 6 6 4 4 6 4 4 6 5 5 8 6 3 4 4 4 1 3 6 4 6 4 2 6 5 2 2 4 7 7 7 6 5 7 7 6 5 6 8 10 10 11 9 7 6 3 5 6 5 8 9 8 7 6 4 5 5 5 6 9 13 15 14 13 11 8 7
8 7 7 8 8 7 5 5 6 7 8 7 6 5 3 2 7 7 7 9 7 6 7 4 4 4 3 4 7 4 2 3 5 5 5 3 3 4 4 6 6 5 3 2 4 6 3 2 6 9 8 7 7 5 5 6 7 7 6 7 10 11 10 8 7 7 4 5 5 4 6 8 8 6 5 5 5 6 7 5 6 13 16 18 18 15 11 10
9 7 8 8 9 8 6 6 7 6 7 6 7 7 2 3 4 7 8 7 6 6 6 4 3 3 1 5 4 0 2 3 4 6 5 3 3 6 5 5 6 4 2 1 4 6 4 4 6 7 5 6 7 6 5 5 5 7 7 5 6 9 8 5 6 6 4 5 5 4 5 7 6 4 4 5 3 4 6 5 5 8 11 14 15 14 14 12
9 8 8 9 10 9 6 6 7 6 6 5 6 4 3 3 2 6 7 5 6 5 5 7 4 2 2 4 1 2 0 2 3 4 6 4 2 6 4 2 6 5 2 4 3 3 5 7 7 5 5 3 5 7 4 3 3 5 8 6 5 7 6 5 5 5 5 6 4 5 4 2 2 2 2 4 3 4 6 6 7 6 7 10 8 9 13 11
10 9 9 9 10 9 6 7 6 6 4 5 4 4 3 3 2 5 5 5 7 4 2 4 1 2 2 1 3 3 3 0 4 2 6 8 3 4 3 2 9 6 7 6 1 5 7 7 5 4 7 5 3 5 5 6 4 5 9 9 8 7 5 5 5 4 6 7 3 3 2 2 1 1 2 3 4 4 5 4 5 7 7 8 5 7 10 8
11 11 10 10 11 9 7 6 4 3 0 3 5 6 5 4 5 5 4 6 7 6 2 2 4 1 1 4 2 7 1 4 4 2 4 7 4 4 3 3 11 6 5 5 3 7 8 4 3 3 6 6 3 3 6 9 7 6 8 8 7 7 5 4 2 3 7 6 1 2 2 2 2 1 4 3 3 4 5 4 4 6 6 5 3 5 5 7
10 12 12 12 11 11 7 4 2 0 2 3 10 10 6 4 5 5 4 7 5 5 3 3 2 2 1 3 1 6 4 4 3 4 3 4 5 7 2 1 8 7 5 7 4 8 6 4 5 4 4 6 4 5 6 7 8 6 8 7 4 4 5 4 2 2 4 2 0 4 4 5 2 2 5 3 3 3 3 4 5 4 4 4 3 5 4 9
10 11 13 13 12 13 10 9 8 5 2 7 10 9 5 3 4 3 4 7 5 2 3 4 2 3 2 1 3 2 5 3 1 1 4 2 4 6 5 1 5 8 7 6 1 3 5 4 3 3 6 6 6 8 6 5 9 8 8 6 3 6 7 5 4 2 2 4 3 5 3 7 6 4 4 3 3 2 2 5 4 4 5 6 5 6 5 7
9 10 12 14 14 14 12 12 11 6 4 10 10 6 3 0 1 0 3 3 2 1 2 3 2 1 4 1 3 2 3 3 2 0 3 2 5 6 7 2 4 5 6 8 3 3 3 3 2 4 9 7 7 6 3 5 10 9 7 4 5 6 4 4 6 4 3 5 2 3 4 4 5 6 4 2 3 3 2 2 2 2 3 5 7 9 5 6
9 9 11 14 15 16 15 13 13 7 6 10 10 6 2 2 2 0 5 5 2 2 3 2 3 2 2 4 3 2 1 1 5 3 2 2 4 7 5 5 3 2 3 9 9 5 1 0 2 3 7 7 6 4 2 6 8 6 5 3 4 3 3 4 7 7 4 4 2 1 5 6 3 4 3 4 4 3 2 2 1 2 2 6 9 9 4 6
8 8 10 12 14 16 15 13 14 12 7 7 8 5 3 3 2 3 5 4 3 4 2 1 1 3 3 6 6 1 1 1 3 3 1 0 2 5 3 2 6 4 2 5 7 6 4 4 4 2 6 4 3 2 1 6 5 4 6 7 7 5 4 5 4 7 6 3 3 4 5 6 2 3 4 6 5 4 4 3 3 2 2 5 8 3 2 6
8 8 9 11 12 14 13 12 15 15 9 7 7 5 3 3 3 6 4 2 3 2 1 1 2 4 2 5 6 1 1 1 0 1 3 3 0 3 1 4 7 3 2 1 4 4 4 6 4 2 5 1 3 5 5 4 4 4 7 7 7 5 5 6 3 2 3 2 5 5 5 6 3 2 4 5 3 5 6 4 2 3 1 2 4 1 4 5
8 8 9 10 11 13 15 13 12 12 9 8 8 6 3 4 7 10 7 4 4 3 3 2 2 3 3 4 4 1 1 1 1 3 3 2 1 1 2 7 5 3 2 1 3 2 4 5 4 2 4 3 4 8 6 5 4 6 7 6 6 6 5 5 2 2 3 3 6 7 7 5 3 5 7 6 6 4 4 3 3 3 3 2 2 4 10 9
9 8 8 10 11 13 14 11 7 9 10 9 9 6 3 6 8 7 7 4 2 2 2 2 2 1 2 3 3 2 1 2 2 2 1 1 1 1 2 5 2 3 5 3 4 1 2 3 2 1 4 3 8 10 5 5 5 7 9 7 6 5 4 4 3 3 4 4 4 5 7 3 4 6 6 8 6 2 2 2 0 1 3 5 4 2 11 11
9 9 8 9 11 12 11 10 8 10 11 11 10 7 5 10 9 6 7 5 2 1 1 2 2 2 2 1 2 2 4 1 2 1 1 1 1 2 3 4 3 3 5 5 4 3 3 0 3 2 2 3 8 6 4 7 7 6 7 7 7 6 5 4 5 5 6 9 8 5 6 4 6 4 4 7 4 3 5 0 6 6 3 7 6 3 7 4
8 9 9 9 10 11 11 11 10 10 11 12 10 8 9 11 8 7 8 3 0 2 3 2 3 5 4 2 2 1 4 2 1 1 2 1 1 2 2 4 5 4 5 6 4 3 6 2 4 3 4 4 5 3 4 6 5 6 5 5 6 6 6 7 6 6 6 9 7 4 6 4 9 5 4 6 3 5 5 1 5 6 3 5 4 3 5 1
9 9 10 9 10 11 11 11 11 11 13 14 10 10 12 10 6 5 7 3 2 1 4 3 4 6 5 6 4 1 3 2 1 3 4 1 1 2 2 2 3 5 6 6 5 4 6 2 2 4 3 2 3 1 2 5 5 6 7 6 6 5 7 8 5 5 5 6 3 4 7 4 10 5 3 4 3 4 3 1 3 2 3 4 1 1 3 2
9 9 9 9 9 11 11 12 12 12 14 14 11 12 12 9 8 7 6 5 4 2 3 3 3 4 3 4 3 2 5 5 2 2 3 3 2 1 2 2 2 4 4 3 5 6 6 3 1 2 1 1 5 2 0 3 4 6 9 9 7 5 3 3 4 4 5 5 2 4 5 2 7 4 4 4 4 3 2 2 1 3 3 3 3 6 4 5
9 9 9 9 10 11 11 12 12 13 14 14 13 14 13 11 10 8 5 5 4 2 4 4 2 2 3 2 1 3 5 3 2 2 1 3 3 1 1 1 2 5 3 1 5 5 6 5 2 2 2 2 5 3 3 3 1 6 8 6 6 5 2 3 4 3 4 4 3 5 5 3 7 5 5 5 5 2 2 2 1 3 2 2 3 6 10 9
9 7 7 10 10 11 12 11 12 14 14 13 13 13 13 11 8 5 5 5 4 3 4 5 3 3 4 3 1 2 4 2 1 3 2 2 2 1 1 1 2 5 3 1 4 4 3 5 2 2 2 1 0 2 3 2 2 4 5 1 3 5 5 6 6 4 5 5 4 7 6 6 8 7 6 5 4 1 2 1 1 1 2 5 4 4 9 12
9 6 5 10 10 10 11 12 14 16 15 15 15 13 10 10 9 7 6 6 5 4 3 4 3 3 5 4 1 1 4 4 4 4 2 2 1 1 0 3 2 2 3 2 3 2 2 5 3 1 1 2 2 2 6 5 2 5 6 5 6 5 5 7 6 3 5 5 3 5 5 6 8 6 4 3 4 2 1 2 4 3 4 9 11 8 9 12
9 8 7 11 10 11 12 13 16 16 14 14 15 14 12 10 8 7 7 7 6 5 4 3 3 3 4 4 2 2 3 4 5 4 2 2 2 2 2 1 1 0 3 4 2 1 2 4 6 5 4 0 4 3 5 5 4 4 4 6 7 7 8 7 3 4 7 7 5 5 3 7 8 4 4 2 6 3 1 2 2 3 4 10 14 14 10 10
9 6 8 11 9 11 14 14 14 15 14 15 14 12 12 11 8 5 6 8 6 6 5 4 5 4 3 3 3 3 4 6 5 4 3 2 1 2 3 1 1 0 3 4 2 4 5 4 6 8 5 2 4 2 4 4 4 3 3 3 5 5 7 6 6 8 10 10 9 9 5 4 4 1 2 4 6 1 5 6 3 1 6 12 14 14 11 8
13 5 11 15 13 13 15 14 13 14 15 15 14 11 9 9 10 7 5 8 8 6 5 3 4 4 4 3 4 3 4 6 5 3 3 1 3 3 1 4 3 1 2 3 3 6 7 4 6 10 7 2 3 2 3 5 4 2 3 2 2 4 5 5 7 7 9 11 10 10 4 4 2 6 8 8 8 3 4 6 4 3 8 12 12 12 13 10
19 12 7 13 16 16 16 15 12 13 15 14 14 13 10 9 11 9 6 7 8 7 6 4 4 4 4 4 4 3 3 4 4 3 3 2 2 2 4 6 2 1 5 6 3 3 3 3 6 9 7 4 4 3 3 3 3 1 3 4 4 6 6 6 6 5 8 8 6 8 4 4 3 10 9 6 5 3 1 4 5 4 7 10 10 11 13 12
18 15 6 9 15 17 18 16 11 11 13 14 15 15 12 11 13 12 9 8 8 7 7 7 5 4 3 4 5 4 3 3 3 3 3 2 2 3 6 5 2 1 8 10 9 5 3 4 7 8 7 3 0 2 4 3 2 1 3 4 6 9 6 5 7 7 7 6 6 8 6 5 7 8 6 4 4 2 1 3 6 6 6 7 9 13 13 12
15 12 5 8 12 15 17 17 15 14 11 11 15 15 14 14 13 14 13 10 9 8 8 6 5 6 5 4 4 5 5 5 4 3 4 4 3 3 3 2 3 7 9 8 10 9 5 5 8 8 9 7 5 4 5 6 5 3 3 3 5 8 7 6 7 7 7 10 9 6 6 8 8 7 6 7 6 5 4 4 6 8 9 10 12 14 12 11
12 7 4 8 11 13 15 15 15 17 12 8 10 12 14 15 13 13 15 13 10 8 8 8 6 6 7 5 5 5 5 6 5 3 5 4 3 4 4 2 4 10 9 4 5 5 3 6 8 7 9 9 7 7 6 7 9 7 7 7 6 7 8 7 9 10 8 10 9 5 8 11 11 10 10 11 10 7 6 6 6 6 10 12 13 14 12 11
10 5 7 13 13 8 10 14 15 16 16 13 11 9 11 14 14 12 13 14 12 9 9 10 9 8 8 7 6 6 6 6 5 4 5 5 3 4 5 3 5 10 7 0 2 4 3 6 6 5 7 9 8 8 7 7 9 8 9 10 9 8 9 10 12 12 10 10 12 12 14 15 14 14 13 12 11 11 11 12 10 8 10 11 11 12 12 11
11 8 10 18 19 13 10 15 17 16 15 15 15 13 11 12 14 13 11 11 12 12 11 11 10 10 10 10 9 7 6 7 6 5 6 6 3 3 3 3 6 8 5 1 3 5 3 4 5 5 7 10 10 9 8 7 9 10 10 11 11 11 11 12 12 12 11 13 16 17 18 18 16 14 13 11 12 16 16 16 13 10 10 10 10 11 11 10
14 15 15 19 23 20 14 15 16 15 12 12 13 14 13 12 14 14 13 13 13 12 12 12 11 10 11 12 12 10 8 8 6 4 5 6 6 5 6 5 6 6 4 2 4 6 4 5 6 6 8 11 10 8 8 7 8 11 12 12 12 12 12 13 13 13 13 16 16 15 17 18 13 11 10 9 12 15 13 11 12 13 10 10 11 11 10 10
18 21 19 17 21 22 16 13 13 14 14 13 13 13 13 13 13 14 14 14 14 13 12 12 13 12 13 13 13 11 9 9 8 5 5 6 5 5 6 6 6 6 5 5 6 6 6 6 6 6 9 11 8 5 7 8 10 14 17 17 15 13 13 14 14 13 14 15 16 17 18 16 11 9 9 9 11 13 12 10 13 15 11 9 9 9 9 10
17 20 21 19 19 20 15 10 11 13 14 14 14 14 14 13 12 13 15 14 14 15 13 11 12 13 13 13 12 12 10 8 8 7 6 5 5 5 6 6 6 7 7 8 8 7 6 7 7 8 10 10 8 5 6 8 12 13 12 12 12 11 10 12 12 12 13 14 16 18 17 14 12 12 12 12 12 12 13 12 10 10 11 9 9 9 9 9
Wind_Direction
99 92 85 78 72 68 63 57 53 49 45 41 37 35 37 48 70 85 93 96 96 94 92 89 86 83 80 78 76 72 68 61 56 53 43 48 99 127 118 126 127 122 112 94 81 65 44 36 2 293 282 266 258 294 216 198 312 279 269 265 138 101 108 105 154 160 124 133 114 154 198 274 263 40 355 349 344 332 344 338 343 357 58 128 168 188 185 178
104 96 89 81 76 71 65 58 53 47 42 39 36 36 45 69 91 99 101 100 97 93 89 86 82 80 77 76 72 65 62 57 54 51 38 50 89 108 121 127 125 127 115 91 76 34 319 301 304 267 266 254 254 315 210 196 332 311 298 25 112 93 76 94 109 106 91 100 85 49 39 31 42 48 360 341 335 322 323 339 2 298 200 174 173 180 186 181
110 102 93 84 79 74 68 61 53 46 39 36 35 44 66 90 102 105 102 99 94 90 86 83 81 78 76 73 68 65 63 57 52 58 62 63 90 105 124 131 138 145 129 108 110 31 315 282 288 260 260 260 266 291 262 219 295 326 349 104 102 89 90 92 85 84 70 89 102 93 57 41 35 54 25 349 3 341 335 27 39 327 138 173 171 172 183 174
116 106 96 86 80 77 72 64 56 48 37 33 40 60 86 101 107 105 101 97 93 89 83 80 78 75 73 69 66 65 64 56 44 34 62 72 98 116 127 140 159 164 225 201 111 21 313 249 260 256 257 282 264 262 344 197 243 322 123 112 86 74 83 81 71 72 64 79 101 83 64 51 47 57 65 39 33 48 9 44 76 70 94 147 156 161 171 164
122 110 99 88 82 80 76 69 59 49 37 34 54 84 102 108 108 104 101 97 91 85 81 80 79 75 71 68 66 64 61 52 35 19 92 101 79 88 136 165 186 178 230 192 80 343 253 241 257 260 257 222 228 226 63 134 192 99 114 106 88 88 94 91 79 78 72 68 82 74 62 60 63 61 59 60 57 58 37 79 95 88 97 123 133 144 154 153
126 114 103 92 85 84 80 72 61 51 37 39 80 107 113 114 110 107 103 94 89 85 83 83 81 75 73 73 70 69 66 57 42 39 80 92 54 51 64 64 157 182 140 105 21 262 232 250 263 253 242 195 186 152 75 108 121 114 110 99 106 115 103 91 77 81 80 71 71 60 57 64 66 63 57 60 69 75 75 85 95 101 106 111 124 134 141 147
130 118 108 97 88 85 80 72 61 52 36 50 107 123 122 118 113 110 103 95 92 88 85 83 78 70 69 73 69 69 66 63 56 42 62 69 39 46 62 67 82 111 111 51 15 252 240 27 12 214 175 139 112 110 117 121 123 131 119 105 113 108 101 94 84 86 81 76 73 61 63 62 59 62 58 52 61 78 72 70 99 112 110 113 125 134 141 149
134 122 114 103 91 83 78 70 60 49 36 72 125 133 128 121 115 112 105 99 94 87 85 78 69 61 60 64 62 66 57 52 128 345 30 31 23 44 64 79 74 72 91 51 31 47 36 38 59 105 139 125 109 122 125 123 118 114 111 113 117 105 102 96 91 88 77 79 81 75 66 48 44 53 54 44 45 68 75 72 92 95 101 119 124 134 144 148
137 128 121 110 96 82 77 69 59 46 39 97 136 140 133 124 118 113 106 99 91 84 78 67 64 66 63 60 54 56 43 19 5 318 353 356 359 20 37 74 68 61 97 47 15 28 29 38 67 96 119 115 114 120 113 112 103 100 104 111 113 106 102 91 91 85 67 80 86 79 67 46 38 43 47 47 42 53 77 94 110 118 116 111 107 128 141 143
141 134 127 116 102 84 79 68 56 43 46 118 144 146 137 128 123 117 109 98 87 78 71 65 67 68 56 55 56 50 48 33 16 2 358 4 14 22 25 61 70 55 82 52 359 17 42 54 71 89 99 100 105 100 94 100 98 101 107 109 110 105 102 92 88 68 50 71 84 82 73 58 53 48 47 53 51 43 60 80 91 130 129 116 117 138 148 151
146 140 133 122 104 89 80 65 52 40 60 133 150 152 143 134 130 122 109 94 85 79 77 80 76 71 58 55 56 37 41 30 14 18 13 15 29 37 44 65 72 60 61 77 5 29 61 80 90 90 97 101 106 101 88 89 93 99 105 103 108 106 96 87 84 69 59 71 80 87 79 64 59 53 47 56 64 61 69 60 42 101 113 103 116 128 147 150
151 146 137 123 109 96 80 62 47 39 75 143 156 157 150 141 137 127 109 96 91 86 83 84 80 78 64 55 51 40 47 19 4 22 26 30 40 46 57 58 52 56 78 29 12 40 60 73 79 70 87 105 107 110 103 91 94 112 125 108 104 104 87 78 79 70 72 79 79 88 81 64 61 56 41 47 67 81 89 69 57 43 34 65 83 48 23 31
158 151 140 128 118 100 80 60 43 42 84 151 161 161 159 149 144 133 113 103 98 93 87 81 77 75 66 58 42 30 46 26 3 17 28 44 46 37 40 46 53 71 103 82 353 10 36 49 77 62 61 95 96 94 111 110 85 100 126 114 99 99 85 73 76 71 67 79 77 75 76 66 65 63 36 44 71 89 68 59 72 46 21 35 2 344 327 319
163 156 146 133 124 103 81 58 45 47 87 155 166 167 166 157 152 142 120 108 101 95 86 78 80 75 63 53 32 18 27 36 21 9 19 36 34 22 16 29 67 75 86 105 7 349 13 34 95 92 68 93 104 70 96 110 64 69 83 88 91 89 92 73 68 80 63 69 66 50 73 79 70 66 45 59 87 82 19 31 72 48 28 20 325 325 314 311
168 161 152 136 127 103 78 62 56 55 86 158 172 173 171 167 161 152 135 116 102 90 79 78 80 60 39 35 25 22 29 39 40 6 7 26 23 16 355 14 49 68 69 98 60 77 77 31 52 120 84 71 105 73 73 92 36 46 58 79 98 82 105 95 71 88 67 72 66 42 75 88 79 73 50 66 80 68 2 358 22 7 8 1 336 338 330 330
173 166 152 139 128 101 83 72 68 64 82 157 176 179 177 175 169 164 156 136 111 86 74 69 40 354 351 40 39 35 36 34 37 5 2 29 22 343 347 13 37 66 72 76 62 96 116 55 38 136 57 35 74 104 69 102 57 37 87 99 130 115 112 106 90 88 48 69 91 49 75 85 81 86 66 72 64 70 37 349 13 4 2 357 337 339 330 338
179 168 153 143 131 108 92 81 81 74 77 146 180 185 182 181 181 177 169 161 145 87 23 12 8 332 318 26 28 30 30 7 13 357 2 33 28 3 23 22 25 44 95 68 61 80 75 75 32 309 285 13 93 145 67 122 135 139 149 128 134 132 109 102 112 97 25 67 112 62 78 84 81 91 77 80 63 52 24 9 29 8 350 345 341 334 321 330
183 171 156 148 140 123 104 94 92 84 80 105 171 191 192 187 187 188 188 200 196 357 321 311 351 342 344 31 18 26 19 358 15 7 10 20 10 38 39 15 9 11 137 34 13 18 25 48 27 342 265 214 164 205 232 144 133 124 171 171 135 107 88 88 92 68 5 75 96 71 82 87 86 90 71 75 70 43 21 10 8 0 342 325 334 325 317 326
182 176 166 158 154 139 118 110 100 95 97 90 114 186 199 196 195 195 196 212 216 271 320 319 334 338 7 30 19 33 15 359 8 9 3 1 2 32 1 355 2 328 307 357 356 338 12 30 356 344 59 117 120 64 40 67 76 96 132 134 106 88 82 81 66 46 352 60 74 76 86 84 81 82 68 64 53 33 19 350 347 360 6 351 346 339 330 325
183 180 172 167 163 153 137 127 117 108 107 94 94 137 185 205 218 220 229 257 247 265 303 316 310 308 328 357 338 321 319 338 360 10 346 353 10 336 314 347 330 307 316 335 3 23 22 346 351 17 42 43 41 38 32 39 39 61 86 73 78 84 76 72 60 56 59 56 55 73 91 87 83 82 69 46 37 29 5 342 335 345 0 2 355 351 341 330
190 178 172 174 168 163 154 142 136 124 122 114 84 51 39 236 242 228 235 261 256 264 286 297 302 295 298 326 328 317 286 348 16 20 7 47 27 322 326 348 329 331 355 307 356 20 5 341 17 27 33 28 35 39 24 37 43 46 55 63 74 74 64 58 56 62 71 67 57 63 93 92 81 79 66 40 40 36 10 3 342 336 354 359 347 348 347 335
195 182 175 176 172 170 165 158 152 143 140 111 52 24 336 258 250 210 219 260 255 257 262 268 288 222 230 340 331 284 100 56 20 23 26 67 31 351 358 16 8 11 12 355 14 10 14 48 36 26 37 43 44 39 30 45 48 42 42 53 64 56 53 54 63 71 46 30 44 53 83 97 79 64 65 47 39 27 13 22 17 350 355 353 339 344 343 331
196 190 180 175 180 178 173 172 164 164 146 75 21 346 272 253 248 204 222 281 274 266 251 259 286 181 234 352 67 200 147 26 353 37 30 358 336 354 350 344 348 350 23 27 34 40 40 47 46 30 8 16 43 32 8 356 5 21 22 26 58 61 65 58 56 69 30 7 27 45 56 115 67 49 96 57 39 20 25 42 44 24 360 358 349 343 339 330
196 194 185 180 185 181 188 189 175 189 156 54 331 297 294 250 243 214 227 287 265 255 275 248 178 95 304 278 141 290 266 278 347 352 357 344 309 340 22 18 342 7 67 37 46 81 55 45 51 41 13 0 11 12 10 11 13 44 28 22 42 46 47 55 55 52 4 337 340 15 48 153 227 118 130 60 59 52 46 54 41 34 25 27 27 352 340 325
199 195 189 185 185 184 197 194 176 221 4 30 271 281 310 260 252 233 231 299 259 227 261 187 148 95 1 142 110 348 288 172 7 1 355 10 39 22 103 70 359 34 76 346 356 57 55 52 10 348 3 1 342 354 33 25 16 59 45 18 27 23 23 53 63 33 356 335 334 319 7 76 280 176 113 60 83 80 53 48 40 59 55 31 4 0 346 318
205 199 195 188 186 185 176 156 145 284 356 277 255 268 292 276 272 243 239 285 245 204 226 159 133 244 140 128 170 10 67 147 14 39 37 28 61 37 100 105 16 67 51 348 53 60 56 62 28 27 5 347 13 55 65 16 356 40 40 17 32 358 347 2 324 20 2 309 120 330 359 97 204 195 115 65 86 85 58 78 63 52 39 19 10 17 349 332
210 204 201 195 192 189 176 164 151 105 8 267 258 266 277 303 306 266 262 265 215 211 225 150 10 253 215 308 203 5 35 90 336 30 23 28 113 19 351 12 42 76 43 353 113 72 37 49 36 14 350 345 37 60 73 12 354 17 17 357 357 322 326 348 327 339 355 336 8 328 344 124 160 181 119 78 106 96 84 112 73 20 29 33 20 7 337 326
212 209 205 202 202 197 196 185 155 109 308 257 243 248 246 294 13 19 311 296 185 255 196 157 325 163 141 175 184 320 4 64 2 8 10 51 127 342 334 62 38 52 26 355 31 68 13 18 3 334 352 18 44 40 47 348 348 8 15 357 7 351 340 354 328 315 336 349 351 270 326 82 150 180 139 97 145 129 110 131 49 31 50 19 20 35 21 326
212 210 207 207 207 204 209 200 175 177 251 229 217 221 213 179 129 26 300 292 237 227 192 214 284 150 152 196 178 345 173 100 13 64 12 19 98 8 21 87 0 309 11 18 47 63 1 11 122 352 358 20 23 15 9 333 327 347 359 315 313 317 319 340 339 343 337 313 308 345 8 41 139 196 135 99 106 94 83 135 65 44 311 345 27 53 32 331
215 209 208 207 208 208 213 205 197 213 225 196 194 196 186 176 176 269 284 264 191 148 146 329 97 158 209 202 189 339 151 145 34 101 41 10 81 15 36 20 336 303 328 36 59 53 44 69 107 5 352 12 9 357 359 357 349 318 315 302 288 282 310 318 320 351 346 319 359 19 24 41 33 341 58 85 77 48 51 120 108 46 320 355 39 77 335 347
222 210 207 207 208 208 208 205 211 221 212 184 187 187 193 191 221 254 273 243 201 143 157 227 141 170 230 222 203 124 71 173 123 273 276 214 197 9 293 324 351 348 297 118 62 63 88 67 78 343 345 38 333 301 264 319 354 307 311 321 321 318 317 302 265 317 332 2 17 3 18 35 20 28 80 73 71 80 71 86 83 66 182 336 25 285 337 19
230 216 206 205 205 205 207 210 218 214 194 186 191 180 194 241 246 250 271 274 241 267 255 202 173 200 229 238 218 114 34 118 123 310 312 204 203 59 9 349 352 319 310 123 22 88 138 53 50 353 19 93 338 320 268 258 279 307 332 334 331 344 338 333 346 329 326 3 11 4 8 27 59 74 86 89 103 106 68 86 112 118 200 301 12 328 2 33
232 223 213 205 205 210 214 220 221 201 188 188 191 176 197 259 261 253 263 260 229 298 273 184 138 167 201 209 188 177 200 68 53 308 11 55 310 17 11 7 344 315 5 5 324 357 138 42 58 26 64 78 348 341 334 346 326 328 357 349 328 350 347 341 354 333 337 346 353 7 356 10 78 64 76 96 104 74 52 138 234 325 303 358 67 355 10 34
233 225 220 210 209 213 213 214 207 196 190 186 186 183 220 255 270 280 273 249 217 282 213 184 191 175 214 226 86 136 219 267 353 333 103 227 337 65 79 55 37 330 342 326 315 323 301 123 117 30 21 340 340 350 350 352 333 326 1 344 337 13 356 343 358 344 350 348 347 1 347 19 85 85 90 91 84 79 101 106 353 26 19 17 52 42 16 39
232 224 222 214 213 213 209 208 200 192 191 185 186 205 232 246 256 277 286 288 132 218 192 198 219 205 211 194 92 11 242 247 351 264 252 251 57 70 78 52 40 9 341 344 359 313 304 81 106 349 347 337 331 359 341 327 324 346 356 326 349 26 346 323 325 320 332 334 328 336 338 57 103 105 94 81 91 106 98 10 24 66 69 23 52 48 36 91
230 225 221 216 215 212 208 206 195 190 191 184 196 229 236 245 248 260 273 285 346 235 195 203 215 222 217 176 161 242 219 217 331 253 231 202 70 56 40 8 12 2 348 349 354 318 316 48 93 324 350 15 321 311 334 323 327 341 340 341 356 356 338 333 313 277 285 288 273 351 347 93 110 102 91 73 107 120 48 44 102 68 16 41 163 264 62 217
227 225 220 215 218 213 209 205 193 191 190 188 212 235 235 245 249 253 260 260 288 277 221 244 225 238 241 177 168 163 194 220 262 248 214 174 175 115 31 329 324 341 342 343 345 343 325 298 121 13 336 356 338 321 228 339 348 330 329 345 339 295 289 340 315 278 288 303 5 3 334 95 99 111 141 83 90 108 26 81 120 327 5 56 292 290 293 268
222 222 219 216 215 211 208 206 197 190 187 196 222 234 241 255 250 249 257 250 262 237 229 258 235 236 256 222 193 152 179 207 189 226 256 141 151 143 358 349 355 338 336 335 327 335 320 286 152 74 318 325 353 330 250 249 324 344 333 350 355 324 294 308 314 312 311 326 356 335 323 71 75 84 113 88 84 83 26 61 17 356 76 97 348 324 317 322
216 209 222 224 219 212 208 203 198 191 190 207 230 235 244 260 249 241 254 242 242 230 232 250 242 252 254 245 276 188 213 256 213 253 270 155 155 316 297 266 351 347 354 357 315 315 309 285 212 96 359 316 13 340 324 255 222 337 328 353 8 342 329 324 315 308 311 322 343 332 346 68 78 69 89 91 81 65 348 329 275 295 264 264 272 291 303 315
205 180 217 231 219 211 207 202 197 195 199 214 230 233 242 260 251 240 243 231 226 229 243 264 249 242 251 252 293 231 236 261 272 283 272 177 214 202 262 281 280 347 348 326 313 299 280 285 275 114 294 243 167 48 13 6 324 336 342 348 347 340 330 307 278 295 328 325 346 328 347 79 80 60 92 90 22 355 283 276 269 288 278 270 284 294 289 299
193 173 220 234 220 208 203 203 202 202 213 224 231 239 249 264 258 231 222 223 233 236 238 279 273 228 249 262 268 268 244 244 266 285 261 253 268 173 156 309 284 185 306 315 326 215 240 286 292 294 279 215 85 53 4 339 296 308 340 349 350 346 339 315 286 19 350 325 336 315 314 91 89 73 105 66 6 17 232 265 282 302 258 261 290 306 301 300
172 173 245 245 233 216 202 204 210 209 221 229 230 241 252 255 244 217 211 215 228 238 230 259 273 250 266 264 224 238 243 239 257 277 267 286 22 152 167 307 336 262 283 321 326 231 251 283 281 284 285 102 81 19 359 346 299 266 276 329 352 342 342 331 328 352 337 318 321 304 293 105 114 2 26 335 331 305 229 255 267 273 259 269 290 305 310 312
169 187 268 254 236 219 203 205 218 221 227 232 233 241 251 246 233 226 224 214 216 228 225 244 256 237 246 234 208 227 243 249 269 284 292 337 118 139 262 288 294 319 289 310 300 257 262 274 267 275 279 155 147 281 340 3 349 291 248 265 332 327 332 315 310 332 321 308 316 315 312 129 145 338 354 336 324 313 253 274 283 210 243 269 288 301 311 319
183 182 248 249 228 215 206 203 213 224 230 235 237 241 246 240 230 229 228 213 213 220 225 242 252 232 226 207 196 215 229 242 273 283 293 320 148 166 303 289 262 323 264 231 214 254 261 256 269 277 270 198 180 253 310 3 22 284 234 227 264 295 302 293 297 301 287 290 312 316 313 116 50 356 5 5 346 354 335 296 296 256 249 269 284 293 305 317
202 196 217 247 226 214 208 203 216 237 238 238 239 240 243 241 233 232 234 226 222 222 228 238 231 208 197 184 186 210 234 231 257 287 271 255 254 271 287 280 171 235 260 231 214 228 257 273 280 288 292 279 260 303 299 319 349 266 225 230 276 295 285 283 301 292 285 308 314 297 314 28 28 5 5 22 16 350 301 280 284 283 273 269 276 288 301 312
210 206 233 261 244 232 216 204 216 233 233 240 242 236 239 241 235 233 235 233 230 227 232 233 210 191 192 187 188 212 233 223 222 280 282 255 251 254 267 257 195 242 263 245 229 233 249 281 274 275 290 302 322 321 285 276 292 302 278 262 281 291 281 274 280 279 309 329 307 295 342 352 344 338 329 332 336 324 311 301 286 280 280 278 282 294 304 304
197 201 243 240 235 241 231 216 224 232 229 239 244 235 236 239 239 235 230 230 234 231 228 230 220 204 202 204 211 221 229 225 221 254 278 257 216 217 259 266 233 260 279 280 254 245 245 278 275 266 279 290 296 298 282 268 274 280 284 280 272 275 275 267 262 269 306 315 285 292 347 332 320 320 313 312 309 292 283 294 289 268 270 275 282 295 305 305
188 238 260 223 206 212 231 230 232 233 233 239 243 242 239 235 235 233 223 223 231 231 227 231 232 226 216 208 212 222 229 232 233 245 265 262 216 219 273 270 239 272 298 331 261 279 253 268 278 271 281 290 287 283 282 282 283 278 274 274 269 262 261 264 268 274 289 286 274 289 310 310 306 303 303 305 292 274 277 289 286 265 260 265 272 282 291 300
196 232 232 213 201 192 212 224 219 219 228 236 238 239 240 236 232 228 222 223 229 230 228 232 233 232 231 221 210 215 227 231 240 248 253 265 253 226 265 242 225 264 294 161 231 264 251 261 278 284 295 296 284 274 272 274 279 280 276 272 268 264 261 263 268 274 276 272 275 288 297 298 301 305 303 290 272 275 291 300 297 283 265 259 260 265 273 285
219 221 214 208 203 200 211 219 211 214 224 228 231 234 235 237 233 228 228 227 227 228 228 231 235 237 240 232 215 213 224 227 234 244 240 252 260 246 248 243 225 242 263 220 234 252 254 272 285 291 298 297 284 263 258 270 281 281 277 271 266 264 263 262 264 267 269 270 275 283 287 290 304 315 297 273 275 292 307 313 308 303 284 258 258 262 263 269
224 219 216 216 211 211 223 230 222 228 236 234 238 240 238 239 237 233 235 232 227 228 228 234 241 242 246 244 229 222 229 229 227 236 249 256 257 244 242 243 231 226 229 227 236 251 261 278 296 292 286 294 297 263 252 273 284 279 277 274 265 258 260 263 265 266 266 272 279 279 281 289 307 316 299 289 295 301 304 302 299 304 303 275 260 263 263 265
228 222 222 225 223 216 219 238 245 242 241 240 242 246 243 241 238 233 233 230 225 222 224 237 245 239 243 249 237 222 219 217 214 219 233 249 256 252 247 245 242 239 234 229 233 246 259 270 287 289 283 290 297 274 263 284 288 281 278 272 256 247 258 264 267 270 271 277 282 281 284 288 286 287 295 301 298 293 295 292 281 293 308 296 271 267 267 266
Height
3146 3146 3146 3145 3145 3145 3144 3143 3143 3142 3141 3140 3139 3137 3136 3135 3134 3133 3133 3132 3132 3132 3132 3132 3131 3131 3131 3131 3131 3131 3131 3130 3130 3129 3130 3130 3129 3129 3130 3130 3130 3131 3131 3132 3132 3132 3135 3136 3136 3136 3136 3136 3137 3138 3138 3137 3136 3137 3139 3139 3139 3141 3140 3139 3139 3139 3138 3139 3138 3137 3139 3139 3140 3139 3138 3140 3139 3136 3137 3138 3138 3139 3139 3140 3139 3139 3139 3139
3147 3147 3147 3147 3146 3146 3145 3145 3144 3143 3142 3141 3140 3139 3138 3137 3136 3135 3135 3135 3135 3135 3135 3134 3134 3134 3134 3134 3134 3134 3133 3133 3132 3131 3133 3133 3132 3132 3132 3132 3133 3133 3133 3133 3132 3134 3138 3138 3139 3138 3136 3136 3136 3136 3136 3137 3137 3137 3138 3139 3140 3140 3140 3140 3139 3139 3139 3139 3138 3138 3140 3139 3139 3139 3138 3139 3138 3137 3137 3138 3137 3138 3139 3139 3139 3139 3139 3140
3148 3148 3148 3148 3148 3147 3147 3146 3145 3144 3143 3142 3141 3140 3139 3139 3138 3138 3138 3138 3138 3138 3138 3137 3137 3137 3136 3136 3136 3136 3136 3135 3134 3134 3136 3135 3134 3134 3134 3134 3134 3134 3134 3133 3132 3135 3138 3138 3138 3136 3135 3136 3136 3135 3135 3137 3137 3137 3138 3139 3141 3140 3140 3139 3138 3139 3139 3139 3138 3139 3140 3140 3139 3139 3138 3138 3139 3138 3137 3137 3137 3137 3138 3138 3139 3140 3140 3141
3149 3149 3149 3149 3149 3149 3148 3147 3147 3146 3145 3144 3143 3142 3141 3141 3140 3141 3140 3140 3140 3140 3140 3139 3139 3139 3139 3138 3138 3139 3138 3137 3136 3136 3136 3136 3136 3135 3135 3134 3134 3134 3134 3134 3134 3136 3137 3134 3133 3132 3134 3137 3136 3136 3137 3137 3137 3138 3138 3139 3140 3140 3140 3140 3140 3139 3139 3139 3139 3140 3141 3141 3140 3139 3139 3138 3138 3138 3137 3137 3137 3137 3138 3138 3139 3140 3141 3143
3150 3150 3150 3150 3150 3150 3149 3149 3148 3147 3146 3145 3144 3144 3143 3143 3143 3143 3143 3143 3143 3142 3142 3141 3141 3141 3141 3140 3141 3140 3139 3139 3137 3135 3136 3137 3137 3136 3136 3135 3134 3134 3134 3135 3135 3135 3134 3132 3131 3131 3134 3137 3136 3137 3138 3137 3138 3138 3138 3138 3140 3141 3141 3141 3140 3141 3140 3139 3139 3141 3140 3139 3139 3139 3139 3139 3138 3137 3137 3138 3138 3138 3138 3139 3140 3141 3142 3144
3151 3151 3151 3151 3151 3151 3150 3150 3149 3149 3148 3147 3146 3145 3145 3145 3145 3145 3145 3145 3145 3144 3144 3143 3143 3143 3142 3142 3142 3141 3140 3140 3139 3137 3138 3139 3140 3138 3136 3134 3134 3134 3134 3135 3134 3133 3132 3132 3131 3130 3133 3136 3137 3137 3139 3139 3139 3139 3139 3140 3142 3142 3142 3141 3141 3141 3142 3141 3139 3140 3139 3139 3139 3138 3139 3139 3139 3138 3137 3139 3139 3139 3139 3140 3141 3142 3143 3145
3151 3152 3152 3152 3152 3152 3151 3151 3150 3150 3149 3148 3147 3147 3147 3147 3147 3147 3147 3147 3147 3146 3145 3145 3145 3145 3144 3144 3143 3142 3141 3140 3140 3141 3140 3140 3140 3138 3136 3135 3134 3134 3135 3136 3134 3133 3133 3132 3130 3129 3133 3137 3138 3138 3139 3139 3139 3140 3140 3142 3143 3143 3142 3142 3142 3143 3143 3143 3141 3140 3139 3139 3139 3139 3139 3140 3140 3139 3138 3139 3140 3141 3140 3140 3141 3143 3144 3146
3152 3152 3153 3153 3153 3153 3152 3152 3151 3151 3150 3149 3149 3148 3148 3149 3149 3149 3149 3149 3148 3148 3147 3147 3147 3146 3146 3146 3145 3143 3143 3143 3142 3142 3140 3139 3139 3137 3137 3137 3136 3136 3135 3135 3135 3134 3133 3132 3130 3130 3134 3138 3140 3140 3139 3139 3140 3140 3140 3143 3144 3144 3144 3143 3143 3144 3144 3143 3143 3142 3140 3140 3140 3140 3140 3140 3140 3140 3140 3140 3140 3141 3141 3141 3143 3144 3145 3147
3153 3153 3153 3153 3154 3153 3153 3153 3152 3152 3151 3150 3150 3150 3150 3150 3151 3151 3151 3151 3150 3150 3149 3149 3149 3148 3147 3147 3146 3145 3146 3145 3143 3142 3140 3139 3138 3138 3138 3137 3138 3137 3135 3136 3135 3135 3135 3134 3133 3133 3137 3139 3140 3141 3140 3140 3141 3141 3141 3143 3144 3144 3145 3144 3144 3144 3144 3144 3144 3143 3142 3142 3141 3141 3141 3141 3141 3141 3142 3142 3142 3143 3143 3143 3145 3146 3147 3148
3154 3154 3154 3154 3154 3154 3154 3154 3153 3153 3152 3151 3151 3151 3151 3152 3152 3152 3152 3152 3152 3151 3151 3151 3150 3149 3149 3148 3147 3148 3148 3146 3145 3143 3141 3140 3139 3139 3139 3139 3139 3137 3137 3140 3139 3138 3138 3137 3137 3137 3139 3141 3141 3142 3142 3142 3143 3142 3143 3144 3145 3145 3145 3145 3145 3144 3144 3144 3145 3145 3145 3144 3144 3143 3143 3143 3143 3142 3142 3142 3143 3145 3146 3147 3148 3148 3149 3150
3155 3155 3155 3155 3155 3155 3155 3155 3154 3153 3153 3153 3152 3152 3153 3153 3154 3154 3154 3153 3153 3153 3152 3152 3152 3151 3151 3149 3148 3150 3148 3146 3145 3144 3143 3142 3141 3140 3140 3140 3139 3137 3140 3145 3144 3142 3141 3141 3143 3142 3141 3143 3144 3144 3144 3144 3144 3144 3145 3146 3146 3146 3146 3146 3145 3145 3145 3145 3145 3145 3145 3146 3146 3145 3144 3145 3145 3144 3143 3143 3142 3142 3145 3147 3148 3149 3150 3151
3155 3155 3156 3156 3156 3156 3156 3156 3155 3154 3154 3154 3154 3154 3154 3154 3155 3155 3155 3155 3154 3154 3154 3154 3153 3153 3151 3150 3150 3151 3149 3148 3147 3146 3145 3143 3142 3142 3142 3140 3140 3140 3143 3147 3145 3143 3144 3144 3145 3144 3144 3145 3146 3146 3146 3146 3146 3146 3147 3147 3147 3146 3146 3147 3147 3147 3147 3146 3146 3145 3146 3148 3148 3146 3146 3145 3145 3146 3145 3146 3145 3143 3143 3143 3144 3146 3148 3148
3156 3156 3156 3157 3157 3157 3157 3156 3156 3155 3155 3155 3155 3155 3155 3156 3156 3156 3156 3156 3156 3156 3155 3155 3154 3154 3152 3152 3153 3152 3151 3151 3149 3147 3146 3145 3144 3143 3142 3141 3143 3144 3145 3147 3146 3144 3145 3146 3147 3148 3148 3147 3148 3147 3147 3148 3147 3147 3147 3147 3148 3147 3147 3148 3148 3148 3147 3146 3146 3145 3147 3149 3149 3148 3147 3146 3146 3147 3146 3147 3148 3147 3146 3145 3144 3146 3146 3147
3156 3157 3157 3157 3158 3158 3158 3157 3157 3156 3156 3156 3156 3156 3156 3157 3157 3157 3157 3157 3157 3157 3157 3156 3155 3154 3153 3154 3154 3153 3152 3151 3150 3149 3147 3146 3145 3144 3145 3145 3146 3146 3146 3148 3149 3146 3146 3147 3149 3149 3150 3150 3150 3148 3148 3149 3148 3147 3148 3147 3148 3147 3148 3148 3148 3148 3148 3147 3147 3147 3148 3150 3150 3149 3148 3147 3147 3147 3147 3148 3149 3149 3149 3148 3148 3148 3148 3148
3157 3157 3158 3158 3158 3158 3158 3158 3158 3157 3157 3157 3157 3157 3157 3158 3158 3158 3158 3159 3158 3158 3158 3157 3157 3155 3154 3155 3156 3154 3153 3152 3152 3151 3149 3148 3147 3148 3149 3148 3147 3147 3147 3149 3151 3150 3150 3150 3149 3149 3150 3152 3150 3150 3150 3150 3150 3149 3149 3149 3148 3147 3148 3149 3148 3148 3148 3148 3148 3148 3149 3151 3151 3150 3149 3149 3149 3149 3148 3148 3148 3149 3149 3149 3149 3148 3148 3147
3157 3158 3158 3159 3159 3159 3159 3159 3158 3158 3158 3158 3158 3158 3159 3159 3159 3159 3159 3159 3159 3159 3159 3158 3158 3156 3155 3157 3156 3154 3153 3153 3154 3154 3151 3151 3151 3152 3151 3149 3149 3149 3149 3151 3151 3152 3152 3152 3151 3150 3151 3152 3151 3150 3150 3150 3151 3149 3149 3149 3148 3148 3148 3149 3149 3149 3149 3149 3149 3149 3150 3151 3152 3151 3151 3150 3151 3150 3149 3149 3148 3149 3149 3149 3149 3148 3147 3146
3158 3158 3159 3159 3159 3160 3160 3160 3159 3159 3159 3159 3159 3159 3160 3160 3160 3160 3160 3160 3160 3160 3160 3159 3159 3156 3156 3157 3155 3155 3156 3155 3155 3155 3153 3152 3152 3152 3151 3151 3151 3150 3151 3152 3152 3152 3153 3153 3153 3151 3151 3152 3151 3149 3148 3149 3150 3149 3150 3148 3147 3149 3149 3149 3150 3150 3149 3150 3150 3151 3151 3151 3152 3152 3152 3152 3152 3151 3149 3149 3148 3149 3149 3149 3149 3148 3147 3146
3158 3158 3159 3160 3160 3160 3160 3160 3160 3160 3160 3160 3160 3160 3161 3161 3161 3161 3161 3161 3161 3160 3160 3159 3158 3157 3157 3157 3156 3157 3157 3156 3155 3154 3153 3153 3152 3152 3153 3153 3152 3152 3153 3153 3153 3153 3153 3153 3153 3151 3150 3151 3150 3148 3148 3148 3148 3149 3150 3148 3147 3149 3149 3150 3151 3150 3150 3150 3151 3151 3151 3152 3152 3152 3152 3152 3152 3151 3150 3149 3149 3149 3149 3149 3148 3148 3147 3146
3158 3159 3159 3160 3160 3161 3161 3161 3161 3161 3161 3161 3161 3161 3161 3162 3162 3162 3162 3162 3161 3161 3160 3159 3159 3159 3158 3158 3158 3157 3156 3155 3155 3154 3154 3154 3153 3153 3154 3153 3153 3153 3153 3153 3153 3152 3152 3153 3152 3151 3151 3150 3149 3150 3149 3148 3148 3148 3149 3148 3148 3149 3149 3151 3152 3151 3151 3151 3151 3152 3152 3152 3153 3153 3153 3152 3152 3151 3150 3150 3149 3149 3149 3148 3148 3147 3147 3146
3158 3159 3159 3160 3161 3161 3161 3162 3162 3162 3162 3162 3162 3162 3162 3163 3163 3163 3162 3162 3161 3162 3161 3161 3160 3160 3159 3158 3158 3157 3156 3156 3155 3156 3155 3153 3153 3154 3154 3153 3154 3154 3153 3153 3153 3152 3152 3152 3151 3151 3151 3151 3151 3151 3150 3149 3149 3149 3149 3148 3148 3149 3150 3151 3152 3152 3152 3152 3152 3152 3152 3153 3154 3154 3154 3153 3152 3152 3151 3150 3149 3148 3148 3148 3147 3147 3147 3147
3158 3159 3160 3160 3161 3161 3162 3162 3163 3163 3163 3163 3163 3163 3164 3164 3163 3163 3163 3161 3162 3163 3162 3161 3160 3159 3159 3159 3158 3157 3156 3157 3156 3156 3155 3153 3154 3155 3154 3154 3154 3153 3154 3153 3153 3153 3152 3152 3152 3152 3152 3152 3152 3152 3151 3150 3150 3149 3149 3148 3148 3149 3151 3152 3153 3153 3153 3152 3153 3153 3153 3154 3154 3154 3154 3154 3154 3153 3153 3152 3150 3149 3148 3147 3146 3146 3146 3146
3158 3159 3160 3160 3161 3162 3162 3163 3163 3163 3164 3164 3164 3164 3164 3163 3162 3162 3162 3161 3162 3162 3161 3161 3159 3159 3159 3159 3159 3157 3156 3158 3158 3157 3156 3154 3155 3155 3154 3154 3154 3153 3153 3153 3153 3154 3153 3152 3153 3153 3153 3153 3152 3152 3151 3150 3150 3149 3149 3149 3149 3150 3152 3153 3153 3154 3154 3153 3153 3153 3154 3154 3155 3155 3155 3155 3155 3154 3153 3152 3152 3151 3149 3148 3147 3146 3145 3145
3158 3159 3159 3160 3161 3162 3162 3163 3163 3164 3164 3164 3165 3164 3163 3162 3162 3162 3162 3161 3161 3161 3161 3160 3159 3159 3159 3159 3159 3157 3157 3159 3158 3158 3157 3155 3156 3155 3154 3154 3154 3153 3153 3153 3153 3153 3153 3152 3153 3154 3153 3152 3152 3152 3151 3151 3150 3150 3149 3149 3150 3150 3152 3153 3153 3154 3155 3155 3154 3153 3154 3155 3155 3154 3154 3155 3154 3154 3153 3153 3153 3152 3150 3149 3147 3146 3145 3145
3158 3158 3159 3160 3161 3162 3162 3163 3164 3164 3164 3165 3166 3164 3163 3162 3162 3162 3162 3162 3161 3161 3161 3159 3159 3161 3160 3159 3158 3157 3158 3159 3158 3158 3157 3155 3155 3154 3154 3155 3154 3152 3153 3153 3152 3152 3153 3153 3154 3154 3153 3152 3152 3152 3151 3150 3150 3150 3151 3150 3150 3151 3152 3153 3154 3154 3154 3154 3154 3153 3154 3155 3155 3155 3154 3154 3154 3154 3154 3154 3153 3153 3152 3150 3149 3148 3146 3145
3157 3158 3159 3160 3161 3161 3162 3163 3165 3165 3165 3167 3166 3164 3163 3163 3163 3163 3162 3162 3160 3160 3160 3159 3159 3160 3159 3159 3158 3157 3157 3159 3158 3158 3157 3156 3155 3154 3155 3156 3154 3153 3155 3153 3152 3153 3154 3154 3154 3154 3154 3153 3152 3151 3151 3152 3151 3150 3152 3153 3152 3153 3153 3153 3154 3154 3153 3154 3154 3153 3153 3154 3155 3156 3155 3155 3155 3155 3155 3155 3153 3153 3153 3152 3150 3149 3148 3146
3157 3158 3158 3159 3160 3161 3162 3163 3165 3166 3167 3167 3165 3164 3164 3163 3163 3163 3162 3162 3160 3159 3158 3158 3159 3159 3159 3158 3158 3158 3158 3158 3158 3158 3157 3156 3156 3156 3155 3155 3155 3155 3156 3154 3153 3154 3155 3155 3155 3154 3154 3153 3152 3152 3153 3154 3153 3152 3153 3154 3154 3154 3153 3153 3153 3153 3153 3153 3153 3153 3153 3154 3156 3155 3156 3156 3156 3155 3155 3155 3154 3153 3153 3152 3150 3149 3148 3146
3156 3157 3158 3159 3160 3161 3161 3162 3163 3166 3167 3167 3164 3164 3164 3163 3163 3163 3162 3161 3159 3158 3158 3158 3159 3158 3159 3159 3158 3159 3159 3158 3158 3158 3158 3157 3156 3156 3155 3156 3156 3156 3156 3155 3154 3155 3155 3156 3156 3155 3154 3153 3153 3153 3154 3155 3154 3153 3154 3154 3154 3154 3153 3153 3152 3152 3152 3152 3153 3153 3152 3153 3155 3155 3156 3156 3155 3156 3155 3155 3155 3153 3152 3152 3151 3150 3148 3146
3155 3156 3157 3158 3159 3160 3161 3162 3162 3164 3165 3164 3163 3164 3164 3163 3163 3163 3163 3161 3158 3158 3158 3158 3158 3158 3159 3159 3159 3159 3159 3159 3158 3158 3159 3158 3157 3156 3155 3156 3157 3156 3157 3155 3154 3156 3156 3156 3157 3156 3155 3155 3155 3155 3156 3156 3155 3154 3155 3155 3154 3154 3154 3153 3152 3152 3152 3152 3152 3152 3151 3153 3156 3155 3155 3155 3154 3155 3156 3155 3154 3154 3153 3153 3152 3151 3150 3148
3155 3155 3156 3157 3158 3159 3160 3161 3162 3161 3162 3162 3162 3163 3163 3164 3164 3163 3164 3162 3159 3158 3158 3158 3158 3158 3159 3159 3159 3159 3159 3159 3159 3159 3158 3158 3157 3157 3156 3157 3158 3157 3157 3156 3155 3157 3156 3156 3157 3157 3157 3156 3156 3156 3156 3156 3156 3155 3155 3155 3154 3154 3153 3153 3152 3151 3151 3151 3151 3151 3150 3153 3156 3155 3154 3155 3154 3155 3156 3155 3154 3154 3153 3153 3153 3152 3152 3150
3154 3155 3155 3156 3157 3158 3159 3161 3161 3161 3161 3162 3162 3163 3164 3164 3164 3164 3164 3161 3157 3157 3158 3158 3158 3159 3159 3158 3159 3159 3159 3159 3159 3159 3159 3159 3158 3158 3158 3158 3158 3157 3157 3157 3157 3157 3156 3156 3156 3157 3157 3157 3157 3157 3156 3156 3156 3155 3154 3154 3153 3153 3153 3153 3153 3152 3151 3150 3150 3150 3150 3151 3155 3155 3154 3154 3155 3155 3156 3155 3155 3155 3154 3153 3153 3153 3153 3151
3153 3154 3155 3155 3156 3158 3159 3160 3160 3160 3161 3162 3163 3164 3164 3164 3164 3164 3162 3159 3157 3157 3158 3158 3158 3159 3159 3158 3158 3159 3159 3159 3159 3159 3159 3159 3159 3159 3159 3158 3158 3158 3158 3158 3157 3157 3157 3157 3157 3157 3157 3157 3157 3157 3156 3156 3155 3155 3154 3153 3153 3153 3152 3151 3151 3152 3152 3150 3149 3149 3149 3151 3155 3155 3153 3154 3155 3155 3156 3156 3156 3156 3155 3154 3154 3153 3152 3152
3152 3153 3154 3155 3156 3157 3157 3158 3158 3160 3161 3162 3163 3164 3164 3165 3164 3163 3161 3158 3157 3157 3157 3158 3158 3158 3158 3158 3158 3158 3159 3159 3159 3159 3158 3158 3159 3159 3159 3159 3159 3159 3158 3158 3157 3157 3158 3158 3158 3157 3157 3157 3158 3156 3155 3155 3155 3154 3153 3153 3153 3153 3153 3152 3150 3151 3150 3150 3149 3149 3150 3151 3154 3154 3153 3154 3155 3155 3156 3156 3155 3155 3154 3154 3154 3153 3151 3151
3151 3152 3153 3154 3155 3155 3156 3157 3158 3160 3161 3162 3163 3164 3165 3165 3163 3161 3160 3159 3158 3157 3157 3158 3158 3158 3158 3158 3157 3158 3159 3159 3159 3159 3159 3159 3159 3159 3159 3160 3159 3159 3158 3158 3158 3157 3157 3158 3158 3158 3157 3157 3158 3157 3156 3155 3156 3155 3154 3154 3153 3152 3155 3155 3153 3152 3151 3150 3149 3150 3150 3151 3154 3155 3155 3154 3155 3155 3155 3154 3154 3154 3153 3153 3154 3153 3152 3151
3150 3151 3152 3153 3154 3155 3156 3157 3158 3159 3161 3162 3163 3164 3165 3165 3162 3160 3159 3158 3158 3158 3158 3158 3158 3158 3158 3158 3158 3159 3159 3159 3159 3159 3159 3159 3159 3159 3159 3160 3159 3159 3159 3159 3158 3157 3157 3157 3158 3158 3158 3158 3158 3158 3158 3157 3157 3156 3155 3155 3154 3154 3156 3156 3154 3153 3153 3151 3150 3150 3150 3151 3154 3156 3155 3154 3155 3155 3155 3154 3153 3153 3153 3152 3153 3153 3154 3153
3149 3150 3151 3152 3153 3154 3155 3156 3158 3159 3160 3161 3163 3164 3164 3163 3162 3160 3159 3158 3158 3158 3158 3158 3158 3158 3158 3158 3158 3159 3159 3158 3159 3159 3159 3159 3159 3159 3160 3160 3160 3160 3160 3159 3158 3158 3157 3156 3158 3158 3158 3159 3159 3158 3159 3158 3157 3156 3156 3156 3155 3155 3156 3155 3155 3155 3155 3154 3153 3151 3150 3151 3154 3156 3155 3155 3156 3155 3155 3155 3154 3154 3154 3154 3154 3154 3155 3154
3149 3149 3150 3151 3152 3153 3154 3156 3157 3158 3159 3161 3162 3163 3162 3161 3161 3160 3159 3159 3159 3158 3158 3158 3158 3158 3157 3157 3158 3159 3159 3159 3159 3159 3159 3159 3160 3160 3160 3160 3161 3161 3160 3160 3160 3159 3158 3157 3158 3158 3158 3159 3158 3158 3159 3159 3158 3157 3156 3156 3156 3157 3157 3156 3155 3155 3155 3154 3152 3150 3150 3151 3153 3155 3155 3156 3156 3156 3156 3156 3155 3155 3154 3154 3154 3154 3154 3153
3148 3149 3150 3150 3151 3152 3154 3155 3156 3157 3159 3160 3161 3161 3160 3160 3161 3160 3159 3159 3159 3158 3158 3158 3157 3157 3157 3157 3158 3159 3159 3159 3159 3159 3158 3159 3160 3160 3161 3161 3161 3161 3161 3160 3160 3160 3159 3158 3158 3159 3159 3158 3158 3158 3158 3159 3159 3158 3157 3157 3157 3157 3157 3157 3156 3155 3154 3152 3150 3150 3150 3151 3152 3154 3155 3156 3156 3157 3157 3157 3157 3156 3154 3154 3154 3152 3152 3152
3147 3148 3149 3150 3150 3152 3153 3154 3156 3157 3158 3159 3160 3159 3159 3159 3160 3159 3159 3159 3159 3159 3159 3158 3157 3157 3157 3157 3158 3159 3159 3159 3159 3159 3158 3159 3159 3160 3161 3161 3160 3160 3160 3161 3161 3160 3160 3158 3157 3159 3159 3158 3158 3158 3158 3158 3159 3159 3158 3157 3157 3157 3157 3157 3156 3156 3155 3152 3151 3149 3149 3150 3152 3154 3155 3156 3156 3157 3157 3157 3157 3156 3155 3155 3153 3151 3150 3150
3147 3148 3149 3149 3150 3151 3152 3154 3155 3156 3157 3158 3159 3158 3158 3158 3159 3159 3159 3159 3159 3159 3158 3158 3158 3158 3158 3158 3158 3159 3159 3159 3159 3159 3159 3159 3160 3160 3161 3161 3161 3161 3160 3161 3161 3160 3160 3159 3158 3158 3159 3159 3159 3159 3158 3158 3159 3159 3158 3158 3158 3158 3158 3157 3156 3156 3155 3153 3152 3151 3149 3151 3154 3155 3155 3156 3156 3157 3157 3157 3157 3156 3155 3154 3153 3152 3149 3149
3146 3147 3148 3148 3149 3151 3152 3153 3154 3155 3156 3157 3157 3158 3158 3158 3158 3158 3158 3158 3158 3159 3158 3158 3158 3159 3158 3158 3159 3159 3160 3159 3159 3159 3159 3159 3159 3160 3160 3160 3161 3162 3161 3161 3161 3161 3160 3160 3159 3158 3158 3158 3158 3159 3159 3159 3159 3159 3159 3159 3159 3158 3158 3157 3156 3155 3155 3153 3153 3153 3152 3153 3155 3156 3155 3155 3155 3156 3156 3156 3156 3156 3154 3152 3151 3151 3150 3149
3146 3147 3147 3147 3149 3150 3151 3152 3153 3154 3155 3156 3156 3157 3157 3157 3157 3157 3157 3157 3158 3158 3158 3158 3158 3158 3158 3158 3158 3159 3160 3160 3159 3159 3159 3159 3159 3160 3160 3159 3160 3162 3161 3161 3161 3160 3160 3160 3159 3159 3158 3157 3158 3159 3160 3160 3160 3160 3160 3160 3159 3159 3159 3157 3155 3155 3156 3154 3153 3153 3153 3153 3155 3155 3155 3155 3155 3155 3155 3155 3155 3155 3154 3151 3150 3150 3150 3149
3146 3147 3147 3147 3148 3149 3150 3151 3152 3153 3155 3155 3155 3156 3156 3156 3156 3156 3157 3157 3157 3157 3158 3158 3158 3158 3158 3158 3159 3159 3160 3160 3160 3159 3159 3159 3159 3159 3159 3159 3160 3161 3161 3161 3161 3160 3160 3161 3160 3159 3158 3158 3159 3160 3160 3160 3159 3159 3160 3160 3160 3160 3159 3159 3158 3157 3157 3156 3154 3152 3152 3153 3154 3154 3154 3154 3154 3155 3154 3154 3154 3155 3153 3151 3150 3149 3149 3149
3144 3145 3146 3146 3147 3148 3149 3150 3152 3153 3153 3153 3155 3156 3155 3155 3156 3156 3156 3157 3157 3157 3157 3158 3158 3158 3158 3159 3159 3160 3160 3159 3159 3159 3159 3159 3159 3158 3159 3159 3160 3161 3161 3161 3160 3159 3160 3161 3161 3159 3158 3158 3159 3159 3159 3159 3159 3159 3160 3160 3160 3160 3159 3160 3159 3159 3158 3156 3155 3153 3151 3153 3154 3154 3154 3153 3153 3153 3153 3152 3153 3154 3153 3151 3150 3149 3148 3148
3141 3142 3143 3144 3145 3147 3147 3149 3151 3152 3153 3153 3154 3154 3154 3155 3155 3155 3156 3156 3156 3157 3157 3158 3158 3157 3158 3158 3159 3159 3159 3159 3159 3159 3160 3160 3158 3158 3159 3159 3160 3161 3160 3160 3160 3159 3160 3161 3161 3160 3158 3157 3158 3159 3159 3159 3159 3159 3160 3159 3160 3159 3159 3159 3159 3159 3158 3156 3155 3154 3152 3153 3154 3153 3152 3152 3152 3152 3152 3152 3152 3152 3152 3151 3150 3149 3148 3148
3142 3142 3143 3143 3143 3145 3146 3148 3150 3151 3152 3152 3152 3153 3153 3154 3154 3154 3155 3155 3156 3156 3157 3157 3157 3157 3158 3158 3158 3159 3159 3159 3160 3159 3160 3160 3159 3158 3159 3159 3160 3160 3158 3159 3159 3159 3160 3161 3161 3160 3159 3158 3159 3159 3159 3159 3159 3159 3159 3159 3159 3159 3159 3159 3159 3158 3158 3156 3155 3155 3154 3153 3153 3153 3152 3152 3152 3152 3153 3152 3152 3152 3151 3151 3149 3148 3148 3147
3141 3142 3144 3144 3143 3144 3145 3146 3148 3148 3149 3150 3151 3151 3152 3152 3153 3153 3153 3154 3155 3155 3156 3156 3156 3157 3157 3157 3158 3159 3159 3159 3159 3160 3160 3160 3159 3158 3158 3159 3159 3158 3157 3158 3159 3159 3160 3160 3160 3160 3160 3160 3160 3160 3160 3159 3159 3159 3159 3159 3159 3158 3158 3159 3159 3158 3157 3156 3156 3155 3154 3154 3154 3155 3154 3154 3153 3153 3152 3152 3152 3152 3151 3150 3149 3148 3147 3147
3140 3142 3143 3144 3143 3143 3144 3146 3146 3147 3148 3149 3149 3150 3150 3151 3152 3152 3152 3153 3154 3155 3155 3155 3156 3156 3157 3157 3158 3159 3159 3159 3159 3160 3160 3160 3159 3158 3158 3159 3159 3158 3158 3158 3159 3159 3160 3160 3160 3160 3160 3160 3160 3160 3159 3159 3159 3159 3158 3158 3159 3158 3158 3158 3158 3157 3157 3157 3155 3154 3154 3154 3154 3155 3154 3154 3153 3152 3152 3152 3152 3152 3151 3149 3148 3147 3147 3146
3138 3140 3140 3141 3141 3142 3144 3145 3146 3146 3147 3148 3148 3148 3149 3150 3151 3151 3151 3152 3153 3154 3154 3154 3155 3156 3156 3156 3157 3158 3158 3159 3159 3159 3159 3159 3159 3158 3158 3159 3159 3158 3158 3159 3159 3159 3159 3159 3159 3159 3159 3159 3159 3159 3158 3158 3158 3157 3157 3157 3157 3157 3157 3157 3157 3156 3157 3156 3155 3153 3154 3154 3154 3153 3153 3153 3152 3150 3150 3151 3150 3150 3150 3149 3148 3147 3147 3146
3134 3135 3136 3136 3138 3139 3140 3141 3142 3144 3145 3146 3147 3147 3148 3148 3149 3150 3151 3151 3152 3153 3153 3153 3154 3155 3155 3156 3156 3157 3158 3158 3158 3159 3159 3159 3159 3158 3159 3159 3158 3158 3158 3159 3159 3159 3158 3159 3159 3159 3158 3158 3158 3157 3157 3157 3157 3156 3156 3156 3156 3156 3156 3156 3156 3156 3156 3155 3154 3154 3153 3153 3152 3152 3152 3152 3150 3149 3149 3149 3148 3148 3148 3148 3148 3147 3147 3146
3132 3132 3133 3134 3135 3136 3137 3138 3140 3142 3143 3144 3144 3145 3146 3147 3147 3148 3150 3150 3150 3151 3152 3153 3153 3154 3155 3155 3155 3156 3157 3157 3158 3158 3158 3158 3158 3158 3159 3159 3159 3158 3158 3159 3159 3158 3158 3158 3158 3158 3158 3157 3156 3156 3156 3156 3156 3155 3155 3154 3154 3154 3155 3155 3155 3155 3154 3153 3153 3153 3152 3151 3151 3152 3151 3150 3148 3148 3148 3147 3147 3147 3147 3146 3147 3146 3146 3146
3129 3130 3131 3133 3134 3135 3136 3138 3139 3140 3141 3142 3143 3144 3144 3145 3146 3147 3148 3149 3149 3150 3151 3152 3153 3153 3154 3154 3154 3155 3156 3157 3157 3157 3158 3157 3157 3158 3158 3158 3159 3158 3158 3159 3158 3158 3158 3158 3158 3158 3157 3156 3155 3155 3155 3155 3154 3153 3152 3152 3152 3153 3153 3153 3153 3153 3152 3152 3151 3151 3150 3149 3150 3151 3150 3149 3148 3148 3148 3147 3146 3145 3145 3145 3145 3145 3145 3145
3127 3129 3130 3131 3132 3134 3135 3137 3139 3139 3140 3141 3142 3143 3143 3143 3145 3146 3146 3147 3147 3148 3149 3151 3151 3151 3152 3152 3153 3153 3155 3155 3156 3156 3156 3157 3157 3158 3157 3157 3158 3158 3158 3158 3158 3158 3158 3158 3158 3158 3156 3155 3154 3154 3154 3154 3153 3151 3149 3149 3150 3151 3151 3151 3151 3151 3151 3150 3149 3148 3148 3149 3149 3149 3148 3148 3148 3148 3147 3146 3145 3144 3144 3144 3144 3144 3144 3144